2019-071M (45122 NORAD) Tracking and Keplerian Element Data

This shows tracking and keplerian element data for the satellite.

Feedback or suggestion? Click here.




ElementValue
Catalog45122
Name2019-071M
Epoch Orbit941
Epoch Day93.86208055
Epoch Year2020
RAAN8.4825
Inclination51.6439
Eccentricity0.0011291
Argument of Perigee110.2818
Mean Anonmoly249.9379
Mean Motion15.33440049
Decay Rate2.629E-05
L11 45122U 19071M 20093.86208055 .00002629 00000-0 91503-4 0 9991
L22 45122 51.6439 8.4825 0011291 110.2818 249.9379 15.33440049 9416

Live tracking and technical data element details for 2019-071M (NORAD 45122). 2019-071M can be tracked NOW for your location showing map with azimuth and elevation plus other details from your city location.

Track the satellite on the map from your city or location and see movement details for azimuth, elevation, latitude, longitude, range, height, and movement on the map or in text.







IsCatalogInMostPopularTable: catalog: 45122, numindb: 11
Update: records affected: 1



GetName: 45122 2019-071M

Hit Count: updated at: Fri, 03 Apr 2020 23:57:28 GMT